Regional Weather Roundup
Issued by NWS

Home | Current Version | Previous Version | Graphics & Text | Print | Product List | Glossary On
Versions: 1 2 3 4 5 6 7 8 9 10 11 12 13 14 15 16 17 18 19 20 21 22 23 24 25 26 27 28 29 30 31 32 33 34 35 36 37 38 39 40 41 42 43 44 45 46 47 48 49 50
000
ASUS43 KIND 181759
RWRIN

WEATHER ROUNDUP FOR INDIANA
NATIONAL WEATHER SERVICE INDIANAPOLIS IN
200 PM EDT FRI APR 18 2014

NOTE: "FAIR" INDICATES FEW OR NO CLOUDS BELOW 12,000 FEET WITH NO
SIGNIFICANT WEATHER AND/OR OBSTRUCTIONS TO VISIBILITY.

* - STATION DOES NOT REPORT WEATHER SUCH AS PRECIPITATION OR FOG.

+ - STATION NOT QUALITY CONTROLLED BY THE NATIONAL WEATHER SERVICE.
    USE DATA WITH CAUTION...ESPECIALLY DEWPOINT AND RELATIVE
    HUMIDITY OBSERVATIONS.

INZ001>003-010>013-019-020-181900-
NORTHWEST INDIANA

CITY           SKY/WX    TMP DP  RH WIND       PRES   REMARKS
GARY /AIRPORT/ MOSUNNY   46  36  66 N14       30.37F
RENSSELAER +   SUNNY     61  36  39 N3        30.30F
VALPARAISO     SUNNY     51  37  58 N10       30.33F
6HR MIN TEMP:  44; 6HR MAX TEMP:  53;


$$

LMZ046-743>745-181900-
SOUTHERN LAKE MICHIGAN

STATION/POSITION TIME  TEMP WIND        PRES
                       AIR  DIR/SP/G
                 (UTC) (F)  (DEG/KT/KT) (MB)
MICHIGAN CITY    1700   39  330/ 10/ 12   N/A

$$

INZ004-005-014>016-021>024-181900-
NORTH CENTRAL INDIANA

CITY           SKY/WX    TMP DP  RH WIND       PRES   REMARKS
ELKHART        MOSUNNY   63  36  36 W12       30.29F
GOSHEN         MOSUNNY   62  41  46 W14       30.28F
6HR MIN TEMP:  48; 6HR MAX TEMP:  63; 6HR PCP: TRACE;

SOUTH BEND     SUNNY     58  40  51 NW12      30.32S
6HR MIN TEMP:  47; 6HR MAX TEMP:  60;


$$

INZ006>009-017-018-025>027-181900-
NORTHEAST INDIANA

CITY           SKY/WX    TMP DP  RH WIND       PRES   REMARKS
ANGOLA *+      PTSUNNY   63  45  51 W12       30.27S
FORT WAYNE     PTSUNNY   67  40  37 W10       30.27F
6HR MIN TEMP:  45; 6HR MAX TEMP:  67;


$$

INZ028-029-035-036-043>045-051>053-181900-
WEST CENTRAL INDIANA

CITY           SKY/WX    TMP DP  RH WIND       PRES   REMARKS
GREENCASTLE +  MOSUNNY   66  39  37 NW7       30.27F
LAFAYETTE      SUNNY     65  40  39 N9        30.29F
6HR MIN TEMP:  44; 6HR MAX TEMP:  65;

TERRE HAUTE    SUNNY     68  40  35 W9        30.28F
6HR MIN TEMP:  45; 6HR MAX TEMP:  68;


$$

INZ030>032-037>040-046>048-054>057-064-065-181900-
CENTRAL INDIANA

CITY           SKY/WX    TMP DP  RH WIND       PRES   REMARKS
ANDERSON       MOSUNNY   66 N/A N/A W9        30.28
COLUMBUS       MOSUNNY   68  36  30 MISG      30.27F
INDIANAPOLIS   MOSUNNY   67  39  35 SW7       30.26F
6HR MIN TEMP:  45; 6HR MAX TEMP:  67;

-EAGLE CREEK   MOSUNNY   67  38  34 VRB6      30.26F
6HR MIN TEMP:  46; 6HR MAX TEMP:  67;

KOKOMO *+      SUNNY     66  43  42 NW8       30.28S
MT COMFORT *+  SUNNY     70  41  35 W9        30.27F
SHELBYVILLE    SUNNY     69  39  33 W6        30.27F
6HR MIN TEMP:  41; 6HR MAX TEMP:  70;


$$

INZ033-034-041-042-049-050-058-059-181900-
EAST CENTRAL INDIANA

CITY           SKY/WX    TMP DP  RH WIND       PRES   REMARKS
MUNCIE         SUNNY     68  39  34 W9        30.26F
6HR MIN TEMP:  44; 6HR MAX TEMP:  68;


$$

INZ060-061-067>069-081>083-085>088-181900-
SOUTHWEST INDIANA

CITY           SKY/WX    TMP DP  RH WIND       PRES   REMARKS
EVANSVILLE     SUNNY     70  38  31 NW8       30.28F
6HR MIN TEMP:  44; 6HR MAX TEMP:  71;

HUNTINGBURG *+ SUNNY     68  43  40 CALM      30.28F
6HR MIN TEMP:  41; 6HR MAX TEMP:  68;


$$

INZ062-063-066-070>080-084-089>092-181900-
SOUTH CENTRAL AND SOUTHEAST INDIANA

CITY           SKY/WX    TMP DP  RH WIND       PRES   REMARKS
BLOOMINGTON    CLOUDY    70  38  31 N5        30.27F
6HR MIN TEMP:  42; 6HR MAX TEMP:  70;

SEYMOUR +      MOSUNNY   64  21  19 W5        30.28F

$$




USA.gov is the U.S. government's official web portal to all federal, state and local government web resources and services.